This demonstration page uses our WeatherBlox Daily Observations layout. Learn more.

Hourly Observations for May 10, 2016

Temp ( °F °C ) Dew Point ( °F °C ) Humidity (%) Winds ( mph kmh ) Pressure ( in mb ) Visibility ( mi km ) Precip ( " mm )
12:15 am 00:15 Clear 55 12.7 52 11 89 89 SE 7 11 29.59 1002 10 16.0934 0 0
12:35 am 00:35 Clear 55 12.5 51 10.6 88 88 SSE 6 9 29.59 1002 10 16.0934 0 0
12:55 am 00:55 Clear 54 12.3 51 10.5 89 89 SSE 6 9 29.62 1003 10 16.0934 0 0
1:15 am 01:15 Clear 54 12.1 50 9.8 86 86 SSE 6 9 29.62 1003 10 16.0934 0 0
1:35 am 01:35 Clear 53 11.7 49 9.5 87 87 Calm 29.62 1003 10 16.0934 0 0
1:55 am 01:55 Clear 53 11.8 49 9.4 85 85 SE 5 7 29.62 1003 10 16.0934 0 0
2:15 am 02:15 Clear 53 11.5 49 9.5 88 88 SSE 5 7 29.62 1003 10 16.0934 0 0
2:35 am 02:35 Clear 53 11.4 48 9 85 85 SSE 3 6 29.65 1004 10 16.0934 0 0
2:55 am 02:55 Clear 51 10.6 47 8.4 86 86 SSE 3 6 29.65 1004 10 16.0934 0 0
3:15 am 03:15 Clear 50 10.2 47 8.6 90 90 ESE 3 6 29.65 1004 10 16.0934 0 0
3:35 am 03:35 Clear 49 9.6 47 8.1 90 90 ENE 3 6 29.68 1005 10 16.0934 0 0
3:55 am 03:55 Clear 49 9.5 47 8.5 94 94 Calm 29.71 1006 10 16.0934 0 0
4:15 am 04:15 Clear 49 9.3 47 8.3 94 94 E 7 11 29.71 1006 10 16.0934 0 0
4:35 am 04:35 Clear 49 9.6 47 8.5 93 93 SE 5 7 29.68 1005 10 16.0934 0 0
4:55 am 04:55 Clear 49 9.4 47 8.3 93 93 Calm 29.71 1006 10 16.0934 0 0
5:15 am 05:15 Clear 49 9.2 47 8.2 94 94 ESE 7 11 29.74 1007 10 16.0934 0 0
5:35 am 05:35 Clear 48 9 47 8.1 94 94 SE 6 9 29.74 1007 10 16.0934 0 0
5:55 am 05:55 Clear 48 8.8 46 7.8 94 94 Calm 29.74 1007 10 16.0934 0 0
6:15 am 06:15 Clear 48 8.9 46 7.9 94 94 Calm 29.74 1007 10 16.0934 0 0
6:35 am 06:35 Sunny 49 9.3 47 8.1 92 92 S 3 6 29.74 1007 10 16.0934 0 0
6:55 am 06:55 Sunny 49 9.5 47 8.1 91 91 Calm 29.74 1007 10 16.0934 0 0
7:15 am 07:15 Sunny 49 9.6 47 8.3 92 92 Calm 29.74 1007 10 16.0934 0 0
7:35 am 07:35 Sunny 51 10.8 48 9.1 89 89 SSW 3 6 29.74 1007 10 16.0934 0 0
7:55 am 07:55 Sunny 53 11.8 50 9.9 88 88 Calm 29.74 1007 10 16.0934 0 0
8:15 am 08:15 Sunny 56 13.3 52 11.1 87 87 SW 5 7 29.74 1007 10 16.0934 0 0
8:35 am 08:35 Sunny 57 14.1 53 11.6 85 85 Calm 29.71 1006 10 16.0934 0 0
8:55 am 08:55 Sunny 59 14.8 53 11.7 82 82 S 3 6 29.71 1006 10 16.0934 0 0
9:15 am 09:15 Sunny 60 15.5 54 12.2 81 81 SSW 3 6 29.74 1007 10 16.0934 0 0
9:35 am 09:35 Sunny 61 16.2 54 12.4 78 78 Calm 29.74 1007 10 16.0934 0 0
9:55 am 09:55 Sunny 62 16.6 54 12.2 75 75 Calm 29.74 1007 10 16.0934 0 0
10:15 am 10:15 Sunny 64 17.5 54 12.4 72 72 Calm 29.71 1006 10 16.0934 0 0
10:35 am 10:35 Sunny 65 18.2 54 12.2 68 68 Calm 29.71 1006 10 16.0934 0 0
10:55 am 10:55 Sunny 67 19.2 54 12 63 63 Calm 29.71 1006 10 16.0934 0 0
11:15 am 11:15 Sunny 68 20 54 12.1 61 61 Calm 29.71 1006 10 16.0934 0 0
11:35 am 11:35 Sunny 69 20.7 53 11.4 55 55 SW 3 6 29.71 1006 10 16.0934 0 0
11:55 am 11:55 Sunny 71 21.5 54 12 55 55 WSW 3 6 29.68 1005 10 16.0934 0 0
12:15 pm 12:15 Sunny 72 22.2 53 11.4 51 51 Calm 29.68 1005 10 16.0934 0 0
12:35 pm 12:35 Sunny 74 23.2 54 12.4 51 51 SW 6 9 29.68 1005 10 16.0934 0 0
12:55 pm 12:55 Sunny 74 23.4 52 11.1 46 46 SSW 6 9 29.68 1005 10 16.0934 0 0
1:15 pm 13:15 Sunny 75 24 49 9.4 40 40 SW 6 9 29.68 1005 10 16.0934 0 0
1:35 pm 13:35 Sunny 76 24.6 49 9.6 39 39 WSW 8 13 29.65 1004 10 16.0934 0 0
1:55 pm 13:55 Sunny 77 24.8 49 9.2 37 37 SSW 3 6 29.65 1004 10 16.0934 0 0
2:15 pm 14:15 Sunny 78 25.5 46 7.6 32 32 SW 6 9 29.65 1004 10 16.0934 0 0
2:35 pm 14:35 Sunny 79 25.9 47 8.1 32 32 SW 14 22 29.65 1004 10 16.0934 0 0
2:55 pm 14:55 Sunny 79 26.1 47 8.3 32 32 WSW 8 13 29.65 1004 10 16.0934 0 0
3:15 pm 15:15 Sunny 80 26.5 47 8.4 32 32 SW 9 15 29.65 1004 10 16.0934 0 0
3:35 pm 15:35 Partly Cloudy 80 26.8 45 7.4 29 29 SSW 12 19 29.65 1004 10 16.0934 0 0
3:55 pm 15:55 Partly Cloudy 80 26.8 46 7.5 29 29 SW 10 17 29.65 1004 10 16.0934 0 0
4:15 pm 16:15 Partly Cloudy 79 25.9 44 6.6 29 29 SW 9 15 29.65 1004 10 16.0934 0 0
4:35 pm 16:35 Partly Cloudy 78 25.5 44 6.9 31 31 Calm 29.65 1004 10 16.0934 0 0
4:55 pm 16:55 Mostly Cloudy 79 26.2 45 7 29 29 S 3 6 29.65 1004 10 16.0934 0 0
5:15 pm 17:15 Partly Cloudy 79 25.9 44 6.8 30 30 NW 7 11 29.65 1004 10 16.0934 0 0
5:35 pm 17:35 Mostly Cloudy 76 24.6 51 10.6 41 41 N 8 13 29.65 1004 10 16.0934 0 0
5:55 pm 17:55 Mostly Cloudy 74 23.6 52 11.2 46 46 NE 8 13 29.68 1005 10 16.0934 0 0
6:15 pm 18:15 Mostly Cloudy 74 23.1 54 12.1 50 50 N 16 26 29.68 1005 10 16.0934 0 0
6:35 pm 18:35 Windy with Storms Likely 70 20.9 53 11.9 57 57 NNW 20 31 29.71 1006 10 16.0934 0 0
6:55 pm 18:55 Cloudy with Heavy Thunderstorms 60 15.8 53 11.4 75 75 WNW 15 24 29.85 1011 4 6.43736 0.26 6.604
7:15 pm 19:15 Cloudy with Nearby Thunderstorms 59 15.1 53 11.8 81 81 NW 21 33 29.83 1010 7 11.26538 0.17 4.318
7:35 pm 19:35 Cloudy with Heavy Thunderstorms 59 15.1 55 12.5 85 85 NNE 16 26 29.83 1010 7 11.26538 0.25 6.35
7:55 pm 19:55 Windy with Storms Likely 58 14.5 54 12.2 86 86 NNE 20 31 29.85 1011 10 16.0934 0.26 6.604
8:15 pm 20:15 Mostly Cloudy 58 14.5 52 11 80 80 N 20 31 29.85 1011 10 16.0934 0 0
8:35 pm 20:35 Mostly Cloudy 58 14.6 50 10.2 75 75 NNE 21 33 29.88 1012 10 16.0934 0 0
8:55 pm 20:55 Cloudy 58 14.6 51 10.5 77 77 N 22 35 29.88 1012 10 16.0934 0 0
9:15 pm 21:15 Cloudy 58 14.5 51 10.5 77 77 N 21 33 29.88 1012 10 16.0934 0 0
9:35 pm 21:35 Mostly Cloudy 58 14.3 49 9.4 73 73 NNE 23 37 29.88 1012 10 16.0934 0 0
9:55 pm 21:55 Cloudy 58 14.5 49 9.5 72 72 NNE 20 31 29.88 1012 10 16.0934 0 0
10:15 pm 22:15 Cloudy 57 14.1 49 9.5 74 74 N 20 31 29.88 1012 10 16.0934 0 0
10:35 pm 22:35 Cloudy 58 14.2 49 9.7 75 75 N 17 28 29.91 1013 10 16.0934 0 0
10:55 pm 22:55 Mostly Cloudy 57 13.8 49 9.6 76 76 N 15 24 29.91 1013 10 16.0934 0 0
11:15 pm 23:15 Partly Cloudy 56 13.6 49 9.6 77 77 N 18 30 29.91 1013 10 16.0934 0 0
11:35 pm 23:35 Mostly Cloudy with Light Rain 55 12.9 46 7.9 72 72 N 25 41 29.94 1014 10 16.0934 0 0
11:55 pm 23:55 Cloudy 55 12.5 46 8 74 74 NNW 15 24 29.94 1014 10 16.0934 0 0

Powered by AerisWeather